GW1585 Weather Reports


Display with metric or nautical units.
time (UTC)temp
F
wind
direction
speed
MPH
gust
MPH
rain 1hr
in
rain 24hr
in
rain mn
in
humidity
%
barometer
mb
20260506154612 53 279 0.0 6.0 0.00 0.00 0.00 75 1013.5
20260506153056 53 262 1.0 4.0 0.00 0.00 0.00 74 1013.5
20260506151558 54 12 1.0 5.0 0.00 0.00 0.00 73 1013.3
20260506150057 54 264 2.0 5.0 0.00 0.00 0.00 73 1013.3
20260506144606 54 1 1.0 4.0 0.00 0.00 0.00 73 1013.3
20260506143055 55 131 1.0 4.0 0.00 0.00 0.00 72 1013.4
20260506141601 55 326 1.0 6.0 0.00 0.00 0.00 71 1013.3
20260506140058 56 360 1.0 6.0 0.00 0.00 0.00 72 1013.4
20260506134556 56 332 1.0 6.0 0.00 0.00 0.00 71 1013.3
20260506133116 56 0 0.0 5.0 0.00 0.00 0.00 74 1013.3
20260506131555 56 329 1.0 4.0 0.00 0.00 0.00 70 1013.2
20260506130120 56 52 1.0 4.0 0.00 0.00 0.00 73 1013.1
20260506124559 55 188 0.0 3.0 0.00 0.00 0.00 75 1013.1
20260506123054 54 252 2.0 6.0 0.00 0.00 0.00 75 1013.1
20260506121555 54 320 0.0 7.0 0.00 0.00 0.00 75 1013.1
20260506120058 54 101 0.0 4.0 0.00 0.00 0.00 75 1013.1
20260506114604 54 335 2.0 5.0 0.00 0.00 0.00 76 1013.1
20260506113055 55 40 0.0 4.0 0.00 0.00 0.00 74 1013.0
20260506111553 54 96 0.0 6.0 0.00 0.00 0.00 75 1013.0
20260506110054 54 15 1.0 5.0 0.00 0.00 0.00 76 1012.9
20260506104623 54 0 0.0 3.0 0.00 0.00 0.00 76 1013.1
20260506103055 53 0 0.0 2.0 0.00 0.00 0.00 77 1012.9
20260506101557 53 272 0.0 2.0 0.00 0.00 0.00 77 1012.9
20260506100054 53 0 1.0 4.0 0.00 0.00 0.00 78 1013.0
20260506094556 52 329 1.0 5.0 0.00 0.00 0.00 79 1012.8
20260506093059 51 0 1.0 6.0 0.00 0.00 0.00 80 1012.8
20260506091556 51 66 1.0 5.0 0.00 0.00 0.00 79 1012.7
20260506090055 51 0 1.0 6.0 0.00 0.00 0.00 80 1012.6
20260506084555 51 51 1.0 5.0 0.00 0.00 0.00 79 1012.4
20260506083055 51 106 2.0 6.0 0.00 0.00 0.00 79 1012.3
20260506081600 50 18 1.0 3.0 0.00 0.00 0.00 80 1012.2
20260506080111 50 0 1.0 5.0 0.00 0.00 0.00 80 1012.1
20260506073057 49 349 2.0 6.0 0.00 0.00 0.00 81 1012.2
20260506071621 49 345 0.0 7.0 0.00 0.00 0.00 82 1012.2
20260506061556 49 350 0.0 5.0 0.00 0.00 0.00 81 1011.9
20260506044612 48 329 1.0 5.0 0.00 0.00 0.00 83 1011.6
20260506043059 48 332 1.0 5.0 0.00 0.00 0.00 83 1011.7
20260506041558 48 360 0.0 5.0 0.00 0.00 0.00 83 1011.7
20260506040059 48 286 0.0 3.0 0.00 0.00 0.00 83 1011.8
20260506034601 48 0 0.0 2.0 0.00 0.00 0.00 83 1011.9
20260506033055 49 129 0.0 2.0 0.00 0.00 0.00 83 1012.1
20260506031559 49 0 0.0 3.0 0.00 0.00 0.00 83 1012.2
20260506030056 49 0 0.0 2.0 0.00 0.00 0.00 82 1012.2
20260506024555 49 309 0.0 6.0 0.00 0.00 0.00 82 1012.3
20260506023055 50 139 1.0 6.0 0.00 0.00 0.00 81 1012.2
20260506021558 50 136 1.0 4.0 0.00 0.00 0.00 81 1012.4
20260506020055 50 117 1.0 5.0 0.00 0.00 0.00 79 1012.4
20260506014556 50 319 1.0 6.0 0.00 0.00 0.00 79 1012.3
20260506013055 50 260 2.0 7.0 0.00 0.00 0.00 77 1012.4
20260506011556 50 253 2.0 6.0 0.00 0.00 0.00 78 1012.5
20260506010058 50 322 2.0 5.0 0.00 0.00 0.00 78 1012.5
20260506004554 51 248 2.0 5.0 0.00 0.00 0.00 80 1012.7
20260506003112 51 238 2.0 8.0 0.00 0.00 0.00 80 1012.5
20260506001611 51 33 2.0 7.0 0.00 0.00 0.00 81 1012.7
20260506000058 51 304 1.0 6.0 0.00 0.00 0.00 82 1012.7
20260505234611 50 248 3.0 6.0 0.00 0.00 0.00 81 1012.8
20260505233053 51 120 2.0 8.0 0.00 0.00 0.00 82 1012.9
20260505231600 50 269 2.0 6.0 0.00 0.00 0.00 83 1012.8
20260505230058 50 249 2.0 6.0 0.00 0.00 0.00 82 1012.9
20260505224554 50 251 3.0 7.0 0.00 0.00 0.00 82 1013.0
20260505223108 50 261 2.0 5.0 0.00 0.00 0.00 82 1012.9
20260505221557 50 263 2.0 6.0 0.00 0.00 0.00 83 1012.9
20260505220059 50 174 2.0 6.0 0.00 0.00 0.00 82 1012.9
20260505214602 50 257 3.0 9.0 0.00 0.00 0.00 81 1013.0
20260505213055 50 307 3.0 5.0 0.00 0.00 0.00 81 1013.0
20260505211617 50 160 1.0 5.0 0.00 0.00 0.00 82 1013.0
20260505210058 50 321 2.0 5.0 0.00 0.00 0.00 82 1013.1
20260505204556 50 324 2.0 5.0 0.00 0.00 0.00 82 1013.0
20260505203121 50 267 2.0 8.0 0.00 0.00 0.00 82 1012.9
20260505201555 50 220 2.0 6.0 0.00 0.00 0.00 81 1012.7
20260505200058 50 256 2.0 5.0 0.00 0.00 0.00 82 1012.5
20260505194558 50 340 1.0 4.0 0.00 0.00 0.00 82 1012.4
20260505193054 51 257 1.0 4.0 0.00 0.00 0.00 82 1012.2
20260505191556 51 0 1.0 5.0 0.00 0.00 0.00 81 1012.2
20260505190056 51 0 1.0 5.0 0.00 0.00 0.00 81 1012.1
20260505184555 51 292 2.0 5.0 0.00 0.00 0.00 81 1012.2
20260505183054 52 266 1.0 5.0 0.00 0.00 0.00 80 1012.2
20260505181555 52 223 1.0 5.0 0.00 0.00 0.00 79 1012.2
20260505180057 53 303 1.0 4.0 0.00 0.00 0.00 78 1012.2
20260505174556 53 0 1.0 7.0 0.00 0.00 0.00 77 1012.1
20260505173056 53 0 1.0 2.0 0.00 0.00 0.00 77 1012.2
20260505171558 54 82 0.0 5.0 0.00 0.00 0.00 76 1012.2
20260505170055 54 118 1.0 5.0 0.00 0.00 0.00 74 1012.2
20260505164556 55 138 1.0 3.0 0.00 0.00 0.00 73 1012.3
20260505163059 56 271 0.0 4.0 0.00 0.00 0.00 72 1012.3
20260505161555 56 82 1.0 4.0 0.00 0.00 0.00 72 1012.3